TimeCDT,TemperatureF,Dew PointF,Humidity,Sea Level PressureIn,VisibilityMPH,Wind Direction,Wind SpeedMPH,Gust SpeedMPH,PrecipitationIn,Events,Conditions,WindDirDegrees,DateUTC
12:15 AM,42.8,30.2,61,30.17,10.0,WNW,12.7,-,N/A,,Scattered Clouds,300,2012-10-05 05:15:00
12:35 AM,41.0,30.2,65,30.18,10.0,WNW,10.4,-,N/A,,Clear,290,2012-10-05 05:35:00
12:54 AM,42.8,30.2,61,30.18,10.0,WNW,9.2,-,N/A,,Mostly Cloudy,290,2012-10-05 05:54:00
1:15 AM,42.8,30.2,61,30.18,10.0,West,10.4,19.6,N/A,,Mostly Cloudy,280,2012-10-05 06:15:00
1:35 AM,42.8,30.2,61,30.18,10.0,WNW,10.4,17.3,N/A,,Mostly Cloudy,290,2012-10-05 06:35:00
1:54 AM,41.0,30.2,65,30.19,10.0,WNW,9.2,-,N/A,,Scattered Clouds,290,2012-10-05 06:54:00
2:15 AM,39.2,30.2,70,30.18,10.0,WNW,9.2,-,N/A,,Clear,290,2012-10-05 07:15:00
2:35 AM,39.2,28.4,65,30.18,10.0,WNW,11.5,18.4,N/A,,Clear,300,2012-10-05 07:35:00
2:54 AM,39.2,28.4,65,30.17,10.0,WNW,12.7,17.3,N/A,,Clear,300,2012-10-05 07:54:00
3:15 AM,39.2,28.4,65,30.17,10.0,WNW,6.9,-,N/A,,Scattered Clouds,290,2012-10-05 08:15:00
3:35 AM,39.2,30.2,70,30.17,10.0,West,4.6,-,N/A,,Mostly Cloudy,280,2012-10-05 08:35:00
3:54 AM,37.4,28.4,70,30.17,10.0,West,5.8,-,N/A,,Scattered Clouds,270,2012-10-05 08:54:00
4:15 AM,37.4,30.2,75,30.17,10.0,West,5.8,-,N/A,,Mostly Cloudy,270,2012-10-05 09:15:00
4:35 AM,39.2,28.4,65,30.16,10.0,West,6.9,-,N/A,,Overcast,280,2012-10-05 09:35:00
4:55 AM,39.2,28.4,65,30.16,10.0,West,8.1,-,N/A,,Overcast,270,2012-10-05 09:55:00
5:15 AM,37.4,28.4,70,30.16,10.0,West,9.2,-,N/A,,Mostly Cloudy,280,2012-10-05 10:15:00
5:34 AM,37.4,28.4,70,30.16,10.0,WNW,11.5,17.3,N/A,,Scattered Clouds,290,2012-10-05 10:34:00
5:55 AM,37.4,26.6,65,30.16,10.0,WNW,9.2,18.4,N/A,,Clear,290,2012-10-05 10:55:00
6:14 AM,35.6,26.6,70,30.17,10.0,WNW,9.2,-,N/A,,Clear,300,2012-10-05 11:14:00
6:35 AM,35.6,26.6,70,30.16,10.0,WNW,9.2,-,N/A,,Clear,290,2012-10-05 11:35:00
6:55 AM,35.6,26.6,70,30.16,10.0,WNW,11.5,18.4,N/A,,Clear,290,2012-10-05 11:55:00
7:14 AM,35.6,24.8,65,30.16,10.0,WNW,10.4,16.1,N/A,,Clear,290,2012-10-05 12:14:00
7:35 AM,35.6,24.8,65,30.17,10.0,WNW,11.5,-,N/A,,Clear,290,2012-10-05 12:35:00
7:55 AM,35.6,24.8,65,30.17,10.0,WNW,9.2,-,N/A,,Clear,290,2012-10-05 12:55:00
8:15 AM,35.6,24.8,65,30.17,10.0,WNW,8.1,17.3,N/A,,Clear,290,2012-10-05 13:15:00
8:35 AM,35.6,24.8,65,30.17,10.0,WNW,11.5,-,N/A,,Clear,290,2012-10-05 13:35:00
8:55 AM,37.4,24.8,60,30.17,10.0,WNW,9.2,18.4,N/A,,Clear,290,2012-10-05 13:55:00
9:15 AM,37.4,24.8,60,30.19,10.0,West,9.2,15.0,N/A,,Clear,270,2012-10-05 14:15:00
9:35 AM,39.2,24.8,56,30.18,10.0,WNW,15.0,20.7,N/A,,Clear,290,2012-10-05 14:35:00
9:55 AM,39.2,24.8,56,30.18,10.0,West,18.4,24.2,N/A,,Clear,280,2012-10-05 14:55:00
10:15 AM,39.2,24.8,56,30.17,10.0,WNW,16.1,28.8,N/A,,Clear,290,2012-10-05 15:15:00
10:35 AM,41.0,24.8,53,30.17,10.0,WNW,16.1,23.0,N/A,,Clear,290,2012-10-05 15:35:00
10:55 AM,41.0,23.0,49,30.17,10.0,WNW,16.1,24.2,N/A,,Clear,290,2012-10-05 15:55:00
11:35 AM,42.8,21.2,42,30.16,10.0,West,16.1,21.9,N/A,,Clear,270,2012-10-05 16:35:00
11:55 AM,42.8,21.2,42,30.17,10.0,WNW,13.8,20.7,N/A,,Clear,290,2012-10-05 16:55:00
12:15 PM,44.6,21.2,39,30.16,10.0,WNW,17.3,23.0,N/A,,Clear,300,2012-10-05 17:15:00
12:34 PM,44.6,21.2,39,30.15,10.0,West,17.3,23.0,N/A,,Clear,280,2012-10-05 17:34:00
12:55 PM,44.6,21.2,39,30.15,10.0,WNW,11.5,24.2,N/A,,Clear,290,2012-10-05 17:55:00
1:34 PM,46.4,21.2,37,30.13,10.0,NW,16.1,21.9,N/A,,Clear,310,2012-10-05 18:34:00
1:55 PM,46.4,21.2,37,30.13,10.0,WNW,19.6,23.0,N/A,,Clear,300,2012-10-05 18:55:00
2:15 PM,46.4,21.2,37,30.13,10.0,West,13.8,26.5,N/A,,Clear,280,2012-10-05 19:15:00
2:34 PM,44.6,21.2,39,30.13,10.0,West,13.8,26.5,N/A,,Clear,280,2012-10-05 19:34:00
2:55 PM,44.6,21.2,39,30.13,10.0,WNW,17.3,24.2,N/A,,Clear,300,2012-10-05 19:55:00
3:15 PM,46.4,21.2,37,30.13,10.0,West,19.6,24.2,N/A,,Clear,280,2012-10-05 20:15:00
3:34 PM,46.4,21.2,37,30.13,10.0,West,16.1,23.0,N/A,,Clear,270,2012-10-05 20:34:00
3:55 PM,46.4,19.4,34,30.12,10.0,WNW,12.7,29.9,N/A,,Clear,290,2012-10-05 20:55:00
4:15 PM,48.2,19.4,32,30.12,10.0,WNW,16.1,24.2,N/A,,Clear,290,2012-10-05 21:15:00
4:35 PM,48.2,19.4,32,30.12,10.0,WNW,17.3,28.8,N/A,,Clear,290,2012-10-05 21:35:00
4:55 PM,48.2,19.4,32,30.11,10.0,WNW,19.6,26.5,N/A,,Clear,300,2012-10-05 21:55:00
5:15 PM,46.4,21.2,37,30.11,10.0,West,20.7,29.9,N/A,,Clear,280,2012-10-05 22:15:00
5:35 PM,46.4,21.2,37,30.11,10.0,WNW,20.7,27.6,N/A,,Clear,300,2012-10-05 22:35:00
5:55 PM,46.4,21.2,37,30.11,10.0,WNW,21.9,27.6,N/A,,Clear,300,2012-10-05 22:55:00
6:15 PM,44.6,21.2,39,30.12,10.0,NW,21.9,29.9,N/A,,Clear,310,2012-10-05 23:15:00
6:35 PM,42.8,23.0,46,30.12,10.0,NW,12.7,25.3,N/A,,Clear,310,2012-10-05 23:35:00
6:55 PM,42.8,23.0,46,30.13,10.0,NW,11.5,17.3,N/A,,Clear,310,2012-10-05 23:55:00
7:15 PM,42.8,24.8,49,30.14,10.0,NW,15.0,25.3,N/A,,Clear,310,2012-10-06 00:15:00
7:35 PM,41.0,24.8,53,30.15,10.0,NW,11.5,19.6,N/A,,Clear,310,2012-10-06 00:35:00
7:55 PM,39.2,24.8,56,30.15,10.0,NW,12.7,-,N/A,,Clear,310,2012-10-06 00:55:00
8:15 PM,39.2,24.8,56,30.15,10.0,NW,12.7,-,N/A,,Clear,310,2012-10-06 01:15:00
8:35 PM,39.2,24.8,56,30.16,10.0,NW,12.7,18.4,N/A,,Scattered Clouds,310,2012-10-06 01:35:00
8:55 PM,39.2,24.8,56,30.16,10.0,NW,17.3,26.5,N/A,,Mostly Cloudy,310,2012-10-06 01:55:00
9:14 PM,39.2,24.8,56,30.16,10.0,NW,18.4,23.0,N/A,,Overcast,320,2012-10-06 02:14:00
9:35 PM,39.2,23.0,52,30.16,10.0,NW,16.1,31.1,N/A,,Overcast,320,2012-10-06 02:35:00
9:55 PM,39.2,23.0,52,30.16,10.0,NW,18.4,31.1,N/A,,Overcast,310,2012-10-06 02:55:00
10:35 PM,39.2,23.0,52,30.17,10.0,NW,18.4,26.5,N/A,,Overcast,310,2012-10-06 03:35:00
10:55 PM,39.2,23.0,52,30.16,10.0,WNW,15.0,21.9,N/A,,Overcast,300,2012-10-06 03:55:00
11:15 PM,39.2,23.0,52,30.16,10.0,WNW,16.1,25.3,N/A,,Overcast,290,2012-10-06 04:15:00
11:35 PM,39.2,23.0,52,30.15,10.0,WNW,16.1,21.9,N/A,,Overcast,300,2012-10-06 04:35:00
11:55 PM,39.2,24.8,56,30.15,10.0,WNW,17.3,20.7,N/A,,Overcast,300,2012-10-06 04:55:00